TimeCST,TemperatureF,Dew PointF,Humidity,Sea Level PressureIn,VisibilityMPH,Wind Direction,Wind SpeedMPH,Gust SpeedMPH,PrecipitationIn,Events,Conditions,WindDirDegrees,DateUTC
12:15 AM,36.9,27.7,69,29.49,10.0,SW,3.5,-,N/A,,Clear,230,2013-12-03 06:15:00
12:35 AM,35.8,27.9,73,29.49,10.0,WSW,4.6,-,N/A,,Clear,240,2013-12-03 06:35:00
12:55 AM,34.2,27.7,77,29.50,10.0,North,8.1,-,N/A,,Clear,350,2013-12-03 06:55:00
1:15 AM,35.8,28.8,76,29.50,10.0,North,4.6,-,N/A,,Clear,350,2013-12-03 07:15:00
1:35 AM,33.6,27.7,79,29.50,10.0,NW,3.5,-,N/A,,Clear,320,2013-12-03 07:35:00
1:55 AM,33.6,28.0,80,29.49,10.0,WNW,3.5,-,N/A,,Clear,290,2013-12-03 07:55:00
2:15 AM,33.4,28.4,82,29.50,10.0,West,3.5,-,N/A,,Clear,280,2013-12-03 08:15:00
2:35 AM,34.9,28.9,79,29.49,10.0,Calm,Calm,-,N/A,,Clear,0,2013-12-03 08:35:00
2:55 AM,35.1,29.3,80,29.48,10.0,Calm,Calm,-,N/A,,Mostly Cloudy,0,2013-12-03 08:55:00
3:15 AM,34.7,29.7,82,29.50,10.0,Calm,Calm,-,N/A,,Overcast,0,2013-12-03 09:15:00
3:35 AM,33.3,28.2,82,29.49,10.0,NNW,6.9,-,N/A,,Mostly Cloudy,330,2013-12-03 09:35:00
3:55 AM,34.0,29.1,82,29.49,10.0,NNW,6.9,-,N/A,,Scattered Clouds,340,2013-12-03 09:55:00
4:15 AM,36.7,30.7,79,29.49,10.0,North,10.4,-,N/A,,Mostly Cloudy,360,2013-12-03 10:15:00
4:35 AM,37.6,30.7,76,29.49,10.0,North,8.1,-,N/A,,Mostly Cloudy,10,2013-12-03 10:35:00
4:55 AM,37.4,30.7,77,29.50,10.0,NNW,5.8,-,N/A,,Mostly Cloudy,330,2013-12-03 10:55:00
5:15 AM,36.7,30.6,78,29.51,10.0,NNW,6.9,-,N/A,,Scattered Clouds,330,2013-12-03 11:15:00
5:35 AM,36.0,30.4,80,29.50,10.0,North,10.4,-,N/A,,Scattered Clouds,10,2013-12-03 11:35:00
5:55 AM,36.1,30.7,81,29.51,10.0,North,8.1,-,N/A,,Scattered Clouds,350,2013-12-03 11:55:00
6:15 AM,36.3,31.1,81,29.52,10.0,North,9.2,-,N/A,,Mostly Cloudy,360,2013-12-03 12:15:00
6:35 AM,35.8,30.9,82,29.52,10.0,North,8.1,-,N/A,,Mostly Cloudy,10,2013-12-03 12:35:00
6:55 AM,33.8,29.8,85,29.55,10.0,NNW,10.4,-,N/A,,Scattered Clouds,330,2013-12-03 12:55:00
7:15 AM,32.0,29.3,90,29.55,10.0,NW,8.1,-,N/A,,Clear,320,2013-12-03 13:15:00
7:35 AM,31.1,29.1,92,29.56,10.0,NNW,8.1,-,N/A,,Clear,340,2013-12-03 13:35:00
7:55 AM,31.6,30.0,94,29.56,7.0,North,9.2,-,N/A,,Clear,350,2013-12-03 13:55:00
8:15 AM,32.0,30.7,95,29.57,7.0,North,11.5,-,N/A,,Clear,350,2013-12-03 14:15:00
8:35 AM,32.9,31.1,93,29.56,7.0,North,13.8,17.3,N/A,,Clear,360,2013-12-03 14:35:00
8:55 AM,33.6,31.3,91,29.58,5.0,North,12.7,17.3,N/A,,Clear,360,2013-12-03 14:55:00
9:15 AM,33.8,31.3,90,29.59,7.0,North,13.8,-,N/A,,Clear,350,2013-12-03 15:15:00
9:35 AM,34.2,31.8,91,29.59,5.0,North,16.1,-,N/A,,Scattered Clouds,360,2013-12-03 15:35:00
9:55 AM,34.7,32.0,90,29.59,5.0,North,17.3,21.9,N/A,,Overcast,10,2013-12-03 15:55:00
10:15 AM,36.0,32.5,87,29.59,5.0,North,18.4,21.9,N/A,,Overcast,360,2013-12-03 16:15:00
10:35 AM,35.8,32.2,87,29.60,5.0,North,18.4,-,N/A,,Overcast,360,2013-12-03 16:35:00
10:55 AM,36.0,32.4,87,29.61,5.0,North,11.5,-,N/A,,Overcast,360,2013-12-03 16:55:00
11:15 AM,36.0,32.4,87,29.60,5.0,North,12.7,-,N/A,,Overcast,360,2013-12-03 17:15:00
11:35 AM,36.1,32.2,86,29.60,5.0,North,12.7,-,N/A,,Overcast,10,2013-12-03 17:35:00
11:55 AM,36.0,32.0,86,29.59,7.0,North,15.0,-,N/A,,Overcast,10,2013-12-03 17:55:00
12:15 PM,36.1,32.0,85,29.59,7.0,NNE,11.5,-,N/A,,Overcast,20,2013-12-03 18:15:00
12:35 PM,37.2,32.2,82,29.59,7.0,North,13.8,-,N/A,,Overcast,10,2013-12-03 18:35:00
12:55 PM,37.4,32.2,81,29.59,7.0,North,13.8,-,N/A,,Overcast,360,2013-12-03 18:55:00
1:15 PM,37.2,32.0,81,29.60,10.0,North,15.0,-,N/A,,Overcast,360,2013-12-03 19:15:00
1:35 PM,37.4,32.0,81,29.60,10.0,North,17.3,-,N/A,,Overcast,360,2013-12-03 19:35:00
1:55 PM,37.4,32.0,81,29.60,7.0,North,18.4,-,N/A,,Overcast,350,2013-12-03 19:55:00
2:15 PM,37.4,32.2,81,29.60,7.0,North,13.8,21.9,N/A,,Overcast,360,2013-12-03 20:15:00
2:35 PM,36.7,32.0,83,29.60,7.0,North,18.4,-,N/A,,Overcast,360,2013-12-03 20:35:00
2:55 PM,35.8,32.0,86,29.62,7.0,North,16.1,20.7,N/A,,Overcast,360,2013-12-03 20:55:00
3:15 PM,36.0,31.8,85,29.61,7.0,North,17.3,21.9,N/A,,Overcast,10,2013-12-03 21:15:00
3:35 PM,35.6,31.5,85,29.60,7.0,North,19.6,-,N/A,,Overcast,10,2013-12-03 21:35:00
3:55 PM,34.9,31.1,86,29.60,7.0,NNE,18.4,24.2,N/A,,Overcast,20,2013-12-03 21:55:00
4:15 PM,34.2,30.9,88,29.61,7.0,NNE,13.8,17.3,N/A,,Overcast,20,2013-12-03 22:15:00
4:35 PM,33.3,30.7,90,29.61,7.0,NNE,20.7,-,N/A,,Overcast,20,2013-12-03 22:35:00
4:55 PM,32.9,30.7,92,29.63,7.0,NNE,19.6,-,N/A,,Overcast,20,2013-12-03 22:55:00
5:15 PM,32.9,30.9,92,29.64,7.0,NNE,18.4,-,N/A,,Overcast,20,2013-12-03 23:15:00
5:35 PM,32.5,30.7,93,29.64,7.0,North,17.3,25.3,N/A,,Overcast,10,2013-12-03 23:35:00
5:55 PM,32.4,30.7,94,29.65,7.0,North,17.3,-,N/A,,Overcast,10,2013-12-03 23:55:00
6:15 PM,32.0,30.2,93,29.67,7.0,North,21.9,-,N/A,,Overcast,10,2013-12-04 00:15:00
6:35 PM,32.0,30.2,93,29.66,7.0,North,19.6,28.8,N/A,,Overcast,10,2013-12-04 00:35:00
6:55 PM,31.8,29.8,92,29.66,10.0,North,19.6,26.5,N/A,,Overcast,10,2013-12-04 00:55:00
7:15 PM,31.5,29.5,92,29.66,10.0,NNE,19.6,25.3,N/A,,Overcast,20,2013-12-04 01:15:00
7:35 PM,31.1,28.9,92,29.67,10.0,NNE,16.1,-,N/A,,Overcast,20,2013-12-04 01:35:00
7:55 PM,30.7,28.4,91,29.68,10.0,NNE,15.0,19.6,N/A,,Overcast,20,2013-12-04 01:55:00
8:15 PM,30.2,28.0,92,29.67,7.0,NNE,16.1,-,N/A,,Overcast,20,2013-12-04 02:15:00
8:35 PM,30.0,27.5,90,29.69,10.0,North,16.1,-,N/A,,Overcast,360,2013-12-04 02:35:00
8:55 PM,29.7,26.2,87,29.69,10.0,North,17.3,-,N/A,,Overcast,10,2013-12-04 02:55:00
9:15 PM,29.7,26.1,86,29.69,10.0,North,17.3,21.9,N/A,,Overcast,360,2013-12-04 03:15:00
9:35 PM,29.1,25.0,85,29.69,10.0,North,13.8,-,N/A,,Overcast,360,2013-12-04 03:35:00
9:55 PM,28.9,24.8,84,29.70,10.0,North,16.1,-,N/A,,Overcast,360,2013-12-04 03:55:00
10:15 PM,29.1,24.8,84,29.70,10.0,North,16.1,20.7,N/A,,Overcast,360,2013-12-04 04:15:00
10:17 PM,28.4,24.8,86,29.70,10.0,North,11.5,-,N/A,,Overcast,350,2013-12-04 04:17:00
10:35 PM,28.8,24.1,83,29.70,10.0,North,12.7,19.6,N/A,,Overcast,350,2013-12-04 04:35:00
10:36 PM,28.4,24.8,86,29.70,10.0,North,16.1,19.6,N/A,,Overcast,360,2013-12-04 04:36:00
10:55 PM,28.8,24.3,83,29.70,10.0,North,12.7,-,N/A,,Overcast,350,2013-12-04 04:55:00
10:56 PM,28.4,24.8,86,29.70,10.0,North,13.8,-,N/A,,Overcast,350,2013-12-04 04:56:00
11:15 PM,28.4,24.3,84,29.69,10.0,North,16.1,-,N/A,,Overcast,360,2013-12-04 05:15:00
11:17 PM,28.4,24.8,86,29.69,10.0,North,16.1,-,N/A,,Overcast,360,2013-12-04 05:17:00
11:35 PM,27.9,24.3,86,29.70,10.0,North,15.0,20.7,N/A,,Overcast,350,2013-12-04 05:35:00
11:37 PM,28.4,24.8,86,29.70,10.0,North,15.0,-,N/A,,Overcast,350,2013-12-04 05:37:00
11:55 PM,28.0,24.4,86,29.70,10.0,North,18.4,26.5,N/A,,Overcast,350,2013-12-04 05:55:00
11:56 PM,28.4,24.8,86,29.70,10.0,NNW,23.0,26.5,N/A,,Overcast,340,2013-12-04 05:56:00